User: anonymous   Login
Location: Altleiningen
(49.5078°N, 8.0741°E)
Time: 01:52:59
(UTC+00:00)
Language:

Cosmos 1500 - Orbit

View from above orbital plane
View from above orbital plane
View from above satellite
View from above satellite

Ground track
Ground track

The orbit data is extracted from the following two-line orbital elements,

1 14372U 83099A   21125.44774841  .00000627  00000-0  28067-4 0  9998
2 14372  82.5177  20.1505 0014554 183.2707 349.8307 15.19275239 52666
Epoch (UTC): 05 May 2021 10:44:45
Eccentricity: 0.0014554
inclination: 82.5177°
perigee height: 498 km
apogee height: 518 km
right ascension of ascending node: 20.1505°
argument of perigee: 183.2707°
revolutions per day: 15.19275239
mean anomaly at epoch: 349.8307°
orbit number at epoch: 5266

The dashed part of the orbit path shows where the satellite is in the earth's shadow,  

DLR